Regional Weather Roundup
Issued by NWS

Home | Current Version | Previous Version | Graphics & Text | Print | Product List | Glossary On
Versions: 1 2 3 4 5 6 7 8 9 10 11 12 13 14 15 16 17 18 19 20 21 22 23 24 25 26 27 28 29 30 31 32 33 34 35 36 37 38 39 40 41 42 43 44 45 46 47 48 49 50
000
ASUS43 KFSD 190410
RWRSD

WEATHER ROUNDUP FOR SOUTH DAKOTA
NATIONAL WEATHER SERVICE SIOUX FALLS SD
1000 PM CST THU JAN 18 2018

NOTE: "FAIR" INDICATES FEW OR NO CLOUDS BELOW 12,000 FEET WITH NO
SIGNIFICANT WEATHER AND/OR OBSTRUCTIONS TO VISIBILITY.


SDZ001>005-009-010-012>017-190500-
NORTHWEST AND NORTH CENTRAL SOUTH DAKOTA

CITY           SKY/WX    TMP DP  RH WIND       PRES   REMARKS
BUFFALO          N/A     44  29  55 CALM      29.61F
FAITH            N/A     36  27  69 NW9       29.69F
MOBRIDGE       CLOUDY    32  25  75 SE7       29.65F WCI  26
$$

SDZ012>016-024>037-041>051-057-063-072>074-190500-
SOUTHWEST AND SOUTH CENTRAL SOUTH DAKOTA

CITY           SKY/WX    TMP DP  RH WIND       PRES   REMARKS
RAPID CTY ARPT CLOUDY    52  26  36 W14       29.71F
PIERRE         CLOUDY    27  24  89 CALM      29.69F
CUSTER         CLOUDY    44  23  43 W8        29.81F
ELLSWORTH AFB  CLOUDY    43  25  48 CALM      29.70F
PHILIP         CLOUDY    32  28  85 CALM      29.69F
PINE RIDGE     CLOUDY    39  30  70 W7        29.80R
SPEARFISH        N/A     52  27  37 SW20G29   29.71F
WINNER         FAIR      43  31  62 SW10      29.74F
$$

SDZ004>011-016>023-039-040-190500-
NORTHEAST SOUTH DAKOTA

CITY           SKY/WX    TMP DP  RH WIND       PRES   REMARKS
ABERDEEN       MOCLDY    28  24  85 S8        29.69F WCI  20
WATERTOWN      CLOUDY    29  27  92 S7        29.70F WCI  22
BROOKINGS      CLOUDY    30  27  88 S6        29.74F WCI  24
SISSETON         N/A     43  26  51 VRB3      29.65F
$$

SDZ017-020-022-023-036>040-048>070-190500-
SOUTHEAST SOUTH DAKOTA

CITY           SKY/WX    TMP DP  RH WIND       PRES   REMARKS
SIOUX FALLS    CLOUDY    34  27  75 SW5       29.78F WCI  30
HURON          CLOUDY    32  28  85 S8        29.72F WCI  25
CHAMBERLAIN    CLOUDY    35  32  89 S5        29.73F
MITCHELL       CLOUDY    34  29  82 S8        29.75F WCI  27
YANKTON        CLOUDY    31  27  85 CALM      29.80F
$$

ABBREVIATIONS USED IN REMARKS
   TC - TEMPERATURE IN CELSIUS
  WCI - WIND CHILL INDEX
   HX - HEAT INDEX
  VSB - VISIBILITY




USA.gov is the U.S. government's official web portal to all federal, state and local government web resources and services.